Showing default

FLOCK 4BE 13, 60512

Orbit data source: Space-Track

FLOCK 4BE 13, 60512 is a payload satellite owned by Planet (US) in SSO that was launched on Fri, 16 Aug 2024 UTC via an FALCON 9 launch vehicle from the Air Force Western Test Range (AFWTR). Payload-class satellites include a variety of spacecraft equipped with specific instruments for various scientific and technological missions. These include communications satellites like Starlink; space stations such as the ISS; scientific satellites like the Hubble; Earth observation satellites from companies like Planet Labs, Umbra, and HawkEye 360; GPS; miniature CubeSats for education and research; and military/defense satellites.

Loading next visibility...
Identifier
60512, 2024-149AW
Orbit
SSO
Country
Flag of USUS
Related business
Manufacturer
Planet
Mission
Operational Commercial Imaging
Bus & Motor
CUBESAT 3U, Unknown motor
Mass
5.7 kg wet, 5.7 kg dry
Launch date (UTC)
2024-08-16 (1 year ago)
Launch vehicle
FALCON 9
Launch site
Air Force Western Test Range (AFWTR)
Object type
Payload
Rocket body
Debris
Shape & HBR
Box + 2 Pan, 1.0 m
Radar Cross Section
0.072 m², Medium (>0.1 m² and < 1m²)

Expand to show TLE details & history
Last TLE update: 17 hours ago

TLE from 17 hours ago
0 FLOCK 4BE 13
1 60512U 24149AW  25289.11872022  .00019250  00000-0  61296-3 0  9997
2 60512  97.3951   7.2817 0005679  71.7953 288.3907 15.32593594 64861
Epoch: 2025-10-16T02:50Z
TLE epoch observation values (Epoch: 2025-10-16T02:50:57.427Z)
Latitude
0.00003°
Longitude
-60.34061°
Altitude
469.96 km
Speed
7.632 km/s
True Right ascension
00h 29m 07s
True Declination
0° 00' 00"
Sunlit
Object was in full shadow at epoch
Visualization orbit readout
Latitude
Unknown
Longitude
Unknown
Altitude
Unknown
Speed
Unknown
Apparent Right ascension
Unknown
Apparent Declination
Unknown
Sunlit
N/A
Visualization observer readout
Local Sidereal Time
14:41:34
Azimuth
Unknown
Elevation
Unknown
Doppler factor
Unknown
Orbital elements
Apogee altitude
468.912 km
Perigee altitude
461.14 km
Semi-major axis
6,843.163 km
Eccentricity
0.00057
Inclination
97.3951°
RAAN
7.2817°
Arg. of periapsis
71.7953°
True anomaly
288.32893°
Mean anomaly
288.3907°
Eccentric anomaly
288.35982°
Mean motion
3.83405 °/min
Orbital period
93.9 mins
BSTAR
0.00061296
Loading maneuver chart data...
Computing Atmospheric mass density...
Loading historical data...
Loading historical data...
Loading historical data...
Loading historical data...
Loading historical data...
Loading historical data...
Loading historical data...

Documentation

Showing up to 5 results
|